Location: ??????????
(54.7560°N, 39.1389°E)
Time: 14:06:11
(UTC+00:00)

Cosmos 158 Rocket - Pass Details

Date: 19 May 2025
Orbit: 694 x 787 km, 74.0° (Epoch: 20 June)

Event Time Altitude Azimuth Distance (km) Brightness Sun altitude
Rises 18:53:16 0° 208° (SSW) 3,241 7.0 -9.0°
Reaches altitude 10° 18:55:37 10° 209° (SSW) 2,327 6.2 -9.2°
Maximum altitude 19:00:57 83° 297° (WNW) 798 4.2 -9.6°
Drops below altitude 10° 19:06:21 10° 27° (NNE) 2,361 7.0 -10.0°
Sets 19:08:46 0° 28° (NNE) 3,293 7.7 -10.2°
